Flag for France Weather past 2 weeks in Le Havre, France

Now
45 °F

Clear.


Feels Like: 40 °F
Forecast: 40 / 53 °F
Wind: 9 mph from Northwest

Location: La Heve

Current Time: Feb 27, 2015 at 5:12:36 PM

Latest Report: Feb 27, 2015 at 4:30 PM


Visibility: N/A

Pressure: 30.18 "Hg

Humidity: 66%

Dew point: 34 °F

Location of Le HavreLocation

Historic Weather in Le Havre — Graph

°F

Le Havre temperature yesterday

Maximum temperature yesterday: 52 °F (at 2:00 PM)
Minimum temperature yesterday: 45 °F (at 6:30 PM)
Average temperature yesterday: 48 °F

Past Weeks' High & Low Weather Summary

 TemperatureHumidityPressure
High52 °F (Feb 26, 2:00 PM)100% (Feb 15, 11:00 PM)30.77 "Hg (Feb 15, 11:00 PM)
Low30 °F (Feb 18, 2:30 AM)53% (Feb 18, 1:00 PM)29.39 "Hg (Feb 23, 2:30 AM)
Average42 °F84%29.94 "Hg
* Reported Feb 12 4:00 PM — Feb 27 4:00 PM, Le Havre, Weather by CustomWeather, © 2015

Note: Actual official high and low records may vary slightly from our data, if they occured in-between our weather recording intervals... More about our weather records

Advertising

Le Havre weather history for previous 24 hours

 ConditionsComfort  
Time TempWeatherWind HumidityBarometerVisibility
4:00 PM
Fri, Feb 27
45 °FClear.10 mph66%30.18 "HgN/A
3:30 PM45 °FClear.9 mph66%30.18 "HgN/A
3:00 PM45 °FClear.10 mph66%30.18 "HgN/A
2:30 PM45 °FPassing clouds.10 mph66%30.18 "HgN/A
2:00 PM45 °FPassing clouds.9 mph66%30.18 "HgN/A
1:30 PM45 °FPassing clouds.8 mph66%30.18 "HgN/A
1:00 PM45 °FPassing clouds.9 mph66%30.18 "HgN/A
12:30 PM45 °FPassing clouds.10 mph66%30.18 "HgN/A
12:00 PM45 °FPassing clouds.9 mph66%30.18 "HgN/A
11:30 AM45 °FClear.10 mph66%30.18 "HgN/A
11:00 AM45 °FPassing clouds.12 mph66%30.18 "HgN/A
10:30 AM43 °FClear.14 mph71%30.15 "HgN/A
10:00 AM41 °FPartly sunny.14 mph70%30.15 "HgN/A
9:30 AM41 °FPassing clouds.14 mph76%30.15 "HgN/A
9:00 AM41 °FPartly sunny.14 mph76%30.15 "HgN/A
8:30 AM41 °FPartly sunny.14 mph76%30.12 "HgN/A
8:00 AM39 °FPassing clouds.13 mph81%30.12 "HgN/A
7:30 AM41 °FPassing clouds.14 mph76%30.12 "HgN/A
7:00 AM41 °FPartly cloudy.17 mph76%30.09 "HgN/A
6:30 AM41 °FPassing clouds.17 mph76%30.09 "HgN/A
6:00 AM41 °FClear.17 mph70%30.07 "HgN/A
5:30 AM41 °FPassing clouds.18 mph70%30.07 "HgN/A
4:30 AM41 °FPassing clouds.21 mph70%30.04 "HgN/A
3:30 AM41 °FClear.21 mph70%30.04 "HgN/A
3:00 AM41 °FClear.24 mph70%30.04 "HgN/A
2:30 AM41 °FClear.24 mph70%30.04 "HgN/A
2:00 AM41 °FPassing clouds.22 mph70%30.04 "HgN/A
1:30 AM41 °FClear.22 mph70%30.01 "HgN/A
1:00 AM43 °FClear.20 mph71%30.01 "HgN/A
12:30 AM43 °FOvercast.21 mph66%30.01 "HgN/A
12:00 AM43 °FMostly cloudy.22 mph71%29.98 "HgN/A
11:30 PM
Thu, Feb 26
45 °FOvercast.21 mph71%29.98 "HgN/A
11:00 PM45 °FOvercast.20 mph71%29.98 "HgN/A
10:30 PM45 °FMostly cloudy.21 mph71%29.98 "HgN/A
10:00 PM45 °FMostly cloudy.21 mph71%29.98 "HgN/A
9:30 PM46 °FMostly cloudy.15 mph82%29.95 "HgN/A
9:00 PM45 °FPartly cloudy.14 mph87%29.95 "HgN/A
8:30 PM45 °FMostly cloudy.16 mph87%29.95 "HgN/A
8:00 PM46 °FMostly cloudy.17 mph87%29.95 "HgN/A
7:30 PM46 °FMostly cloudy.16 mph87%29.92 "HgN/A
7:00 PM46 °FMostly cloudy.15 mph87%29.92 "HgN/A
6:30 PM45 °FBroken clouds.17 mph93%29.92 "HgN/A
6:00 PM46 °FMore clouds than sun.15 mph93%29.89 "HgN/A
5:30 PM46 °FFog.15 mph100%29.89 "Hg2 mi
5:00 PM48 °FLight rain. Fog.16 mph94%29.89 "Hg1 mi
Weather by CustomWeather, © 2015

See weather overviewHow to use our weather pages